,,,PA_Meas_PMT16A,,PR_Meas_QMR101_102,,RH_Meas_QMH101,,SR_Meas_QMS101,,TA_Meas_QMH101,,GenWind,,GenWind,
date,time,status,PA,status,PR,status,RH,status,SR,status,TA,status,DirAvg,status,SpdAvg,
2009-03-20, 00:00:04,VALID,1000.76,VALID,0,VALID,95.355,VALID,0,VALID,22.864,VALID,17,VALID,0,
2009-03-20, 00:01:04,VALID,1000.75,VALID,0,VALID,95.3397,VALID,0,VALID,22.8445,VALID,17,VALID,0,
2009-03-20, 00:02:04,VALID,1000.73,VALID,0,VALID,95.3626,VALID,0,VALID,22.825,VALID,17,VALID,0,
2009-03-20, 00:03:04,VALID,1000.7,VALID,0,VALID,95.4084,VALID,0,VALID,22.8445,VALID,17,VALID,0,
2009-03-20, 00:04:04,VALID,1000.7,VALID,0,VALID,95.4084,VALID,0,VALID,22.8445,VALID,17,VALID,0.275781,
2009-03-20, 00:05:04,VALID,1000.61,VALID,0,VALID,95.4084,VALID,0,VALID,22.864,VALID,17,VALID,0.428125,
2009-03-20, 00:06:04,VALID,1000.65,VALID,0,VALID,95.4389,VALID,0,VALID,22.8445,VALID,17,VALID,0.651172,
2009-03-20, 00:07:04,VALID,1000.59,VALID,0,VALID,95.4618,VALID,0,VALID,22.8835,VALID,17,VALID,0.703906,
2009-03-20, 00:08:04,VALID,1000.57,VALID,0,VALID,95.5,VALID,0,VALID,22.903,VALID,17,VALID,0.632422,
2009-03-20, 00:09:04,VALID,1000.57,VALID,0,VALID,95.4771,VALID,0,VALID,22.9225,VALID,17,VALID,0.677344,
2009-03-20, 00:10:04,VALID,1000.55,VALID,0,VALID,95.3703,VALID,0,VALID,22.9225,VALID,30,VALID,0.784766,
2009-03-20, 00:11:04,VALID,1000.5,VALID,0,VALID,95.3779,VALID,0,VALID,22.9225,VALID,38,VALID,0.771094,
2009-03-20, 00:12:04,VALID,1000.5,VALID,0,VALID,95.3092,VALID,0,VALID,22.903,VALID,39,VALID,0.676562,
2009-03-20, 00:13:04,VALID,1000.46,VALID,0,VALID,95.2634,VALID,0,VALID,22.8427,VALID,54,VALID,0.439453,
2009-03-20, 00:14:04,VALID,1000.45,VALID,0,VALID,95.3168,VALID,0,VALID,22.8232,VALID,88,VALID,0.638281,
2009-03-20, 00:15:04,VALID,1000.43,VALID,0,VALID,95.3397,VALID,0,VALID,22.8445,VALID,88,VALID,0.705469,
2009-03-20, 00:16:04,VALID,1000.41,VALID,0,VALID,95.3245,VALID,0,VALID,22.825,VALID,88,VALID,0.783203,
2009-03-20, 00:17:04,VALID,1000.4,VALID,0,VALID,95.3321,VALID,0,VALID,22.8055,VALID,88,VALID,0.680859,
2009-03-20, 00:18:04,VALID,1000.39,VALID,0,VALID,95.3168,VALID,0,VALID,22.786,VALID,88,VALID,0.684766,
2009-03-20, 00:19:04,VALID,1000.4,VALID,0,VALID,95.3245,VALID,0,VALID,22.7664,VALID,88,VALID,0.507813,
2009-03-20, 00:20:04,VALID,1000.41,VALID,0,VALID,95.3168,VALID,0,VALID,22.7469,VALID,88,VALID,0.538672,
2009-03-20, 00:21:04,VALID,1000.37,VALID,0,VALID,95.3092,VALID,0,VALID,22.7274,VALID,88,VALID,0.532031,
2009-03-20, 00:22:04,VALID,1000.35,VALID,0,VALID,95.3779,VALID,0,VALID,22.7664,VALID,88,VALID,0.445313,
2009-03-20, 00:23:04,VALID,1000.35,VALID,0,VALID,95.3703,VALID,0,VALID,22.7469,VALID,88,VALID,0.442187,
2009-03-20, 00:24:04,VALID,1000.33,VALID,0,VALID,95.3397,VALID,0,VALID,22.7274,VALID,87,VALID,0.525,
2009-03-20, 00:25:04,VALID,1000.31,VALID,0,VALID,95.3474,VALID,0,VALID,22.7079,VALID,87,VALID,0.546484,
2009-03-20, 00:26:04,VALID,1000.27,VALID,0,VALID,95.355,VALID,0,VALID,22.7274,VALID,87,VALID,0.529688,
2009-03-20, 00:27:04,VALID,1000.24,VALID,0,VALID,95.3855,VALID,0,VALID,22.7274,VALID,87,VALID,0.480078,
2009-03-20, 00:28:04,VALID,1000.24,VALID,0,VALID,95.3779,VALID,0,VALID,22.7274,VALID,87,VALID,0.437109,
2009-03-20, 00:29:04,VALID,1000.25,VALID,0,VALID,95.355,VALID,0,VALID,22.7274,VALID,87,VALID,0.360156,
2009-03-20, 00:30:04,VALID,1000.22,VALID,0,VALID,95.3092,VALID,0,VALID,22.7079,VALID,87,VALID,0.314063,
2009-03-20, 00:31:04,VALID,1000.23,VALID,0,VALID,95.3703,VALID,0,VALID,22.6884,VALID,87,VALID,0.270703,
2009-03-20, 00:32:04,VALID,1000.22,VALID,0,VALID,95.3779,VALID,0,VALID,22.6884,VALID,87,VALID,0.408594,
2009-03-20, 00:33:04,VALID,1000.23,VALID,0,VALID,95.3931,VALID,0,VALID,22.6884,VALID,87,VALID,0.608594,
2009-03-20, 00:34:04,VALID,1000.18,VALID,0,VALID,95.4313,VALID,0,VALID,22.6884,VALID,87,VALID,0.61875,
2009-03-20, 00:35:04,VALID,1000.18,VALID,0,VALID,95.4313,VALID,0,VALID,22.6867,VALID,87,VALID,0.538281,
2009-03-20, 00:36:04,VALID,1000.18,VALID,0,VALID,95.3855,VALID,0,VALID,22.6867,VALID,87,VALID,0.512891,
2009-03-20, 00:37:04,VALID,1000.19,VALID,0,VALID,95.3016,VALID,0,VALID,22.6884,VALID,87,VALID,0.408203,
2009-03-20, 00:38:04,VALID,1000.18,VALID,0,VALID,95.3016,VALID,0,VALID,22.6087,VALID,25,VALID,0.740625,
2009-03-20, 00:39:04,VALID,1000.19,VALID,0,VALID,95.3779,VALID,0,VALID,22.6477,VALID,19,VALID,0.735937,
2009-03-20, 00:40:04,VALID,1000.18,VALID,0,VALID,95.416,VALID,0,VALID,22.6689,VALID,19,VALID,0.723047,
2009-03-20, 00:41:04,VALID,1000.17,VALID,0,VALID,95.3855,VALID,0,VALID,22.6689,VALID,19,VALID,0.629297,
2009-03-20, 00:42:04,VALID,1000.2,VALID,0,VALID,95.3397,VALID,0,VALID,22.6299,VALID,19,VALID,0.694922,
2009-03-20, 00:43:04,VALID,1000.19,VALID,0,VALID,95.3245,VALID,0,VALID,22.6104,VALID,19,VALID,0.550781,
2009-03-20, 00:44:04,VALID,1000.15,VALID,0,VALID,95.3321,VALID,0,VALID,22.5909,VALID,19,VALID,0.576563,
2009-03-20, 00:45:04,VALID,1000.13,VALID,0,VALID,95.3703,VALID,0,VALID,22.5909,VALID,19,VALID,0.556641,
2009-03-20, 00:46:04,VALID,1000.14,VALID,0,VALID,95.4008,VALID,0,VALID,22.5714,VALID,19,VALID,0.446094,
2009-03-20, 00:47:04,VALID,1000.14,VALID,0,VALID,95.3855,VALID,0,VALID,22.5714,VALID,19,VALID,0.202734,
2009-03-20, 00:48:04,VALID,1000.11,VALID,0,VALID,95.3397,VALID,0,VALID,22.5323,VALID,19,VALID,0.16875,
2009-03-20, 00:49:04,VALID,1000.1,VALID,0,VALID,95.3397,VALID,0,VALID,22.5128,VALID,19,VALID,0.334375,
2009-03-20, 00:50:04,VALID,1000.09,VALID,0,VALID,95.3703,VALID,0,VALID,22.4933,VALID,19,VALID,0.338281,
2009-03-20, 00:51:04,VALID,1000.08,VALID,0,VALID,95.4084,VALID,0,VALID,22.4526,VALID,19,VALID,0.416016,
2009-03-20, 00:52:04,VALID,1000.13,VALID,0,VALID,95.4084,VALID,0,VALID,22.4738,VALID,20,VALID,0.422656,
2009-03-20, 00:53:04,VALID,1000.1,VALID,0,VALID,95.4237,VALID,0,VALID,22.4543,VALID,20,VALID,0.427734,
2009-03-20, 00:54:04,VALID,1000.08,VALID,0,VALID,95.4694,VALID,0,VALID,22.4331,VALID,20,VALID,0.410937,
2009-03-20, 00:55:04,VALID,1000.05,VALID,0,VALID,95.5305,VALID,0,VALID,22.4526,VALID,20,VALID,0.319141,
2009-03-20, 00:56:04,VALID,1000.02,VALID,0,VALID,95.5991,VALID,0,VALID,22.5128,VALID,20,VALID,0.257031,
2009-03-20, 00:57:04,VALID,999.984,VALID,0,VALID,95.622,VALID,0,VALID,22.5323,VALID,20,VALID,0.280469,
2009-03-20, 00:58:04,VALID,999.953,VALID,0,VALID,95.5991,VALID,0,VALID,22.5519,VALID,20,VALID,0.202344,
2009-03-20, 00:59:04,VALID,999.949,VALID,0,VALID,95.5839,VALID,0,VALID,22.5714,VALID,20,VALID,0.273047,
2009-03-20, 01:00:04,VALID,999.95,VALID,0,VALID,95.5915,VALID,0,VALID,22.5501,VALID,20,VALID,0.330469,
2009-03-20, 01:01:04,VALID,999.949,VALID,0,VALID,95.6068,VALID,0,VALID,22.5714,VALID,20,VALID,0.302344,
2009-03-20, 01:02:04,VALID,999.961,VALID,0,VALID,95.622,VALID,0,VALID,22.5909,VALID,20,VALID,0.325391,
2009-03-20, 01:03:04,VALID,999.926,VALID,0,VALID,95.6068,VALID,0,VALID,22.6104,VALID,20,VALID,0.317969,
2009-03-20, 01:04:04,VALID,999.908,VALID,0,VALID,95.6068,VALID,0,VALID,22.5909,VALID,20,VALID,0.232422,
2009-03-20, 01:05:04,VALID,999.916,VALID,0,VALID,95.5839,VALID,0,VALID,22.5696,VALID,20,VALID,0,
2009-03-20, 01:06:04,VALID,999.896,VALID,0,VALID,95.5686,VALID,0,VALID,22.5714,VALID,20,VALID,0,
2009-03-20, 01:07:04,VALID,999.889,VALID,0,VALID,95.5915,VALID,0,VALID,22.5696,VALID,20,VALID,0.330078,
2009-03-20, 01:08:04,VALID,999.848,VALID,0,VALID,95.5381,VALID,0,VALID,22.5306,VALID,12,VALID,0.588672,
2009-03-20, 01:09:04,VALID,999.876,VALID,0,VALID,95.5381,VALID,0,VALID,22.5323,VALID,12,VALID,0.362109,
2009-03-20, 01:10:04,VALID,999.845,VALID,0,VALID,95.5076,VALID,0,VALID,22.5128,VALID,12,VALID,0.141016,
2009-03-20, 01:11:04,VALID,999.854,VALID,0,VALID,95.5076,VALID,0,VALID,22.5128,VALID,12,VALID,0,
2009-03-20, 01:12:04,VALID,999.803,VALID,0,VALID,95.4847,VALID,0,VALID,22.4933,VALID,12,VALID,0,
2009-03-20, 01:13:04,VALID,999.776,VALID,0,VALID,95.5228,VALID,0,VALID,22.4543,VALID,12,VALID,0.307422,
2009-03-20, 01:14:04,VALID,999.744,VALID,0,VALID,95.561,VALID,0,VALID,22.4738,VALID,12,VALID,0.433984,
2009-03-20, 01:15:04,VALID,999.718,VALID,0,VALID,95.5381,VALID,0,VALID,22.4543,VALID,12,VALID,0.351953,
2009-03-20, 01:16:04,VALID,999.732,VALID,0,VALID,95.5,VALID,0,VALID,22.4348,VALID,12,VALID,0.401172,
2009-03-20, 01:17:04,VALID,999.692,VALID,0,VALID,95.5915,VALID,0,VALID,22.4543,VALID,12,VALID,0.374609,
2009-03-20, 01:18:04,VALID,999.723,VALID,0,VALID,95.6449,VALID,0,VALID,22.4738,VALID,12,VALID,0.407031,
2009-03-20, 01:19:04,VALID,999.711,VALID,0,VALID,95.6297,VALID,0,VALID,22.4721,VALID,12,VALID,0.358594,
2009-03-20, 01:20:04,VALID,999.689,VALID,0,VALID,95.6144,VALID,0,VALID,22.4738,VALID,12,VALID,0.389844,
2009-03-20, 01:21:04,VALID,999.676,VALID,0,VALID,95.5762,VALID,0,VALID,22.4331,VALID,12,VALID,0.439453,
2009-03-20, 01:22:04,VALID,999.652,VALID,0,VALID,95.5991,VALID,0,VALID,22.4348,VALID,12,VALID,0.512109,
2009-03-20, 01:23:04,VALID,999.632,VALID,0,VALID,95.6068,VALID,0,VALID,22.4153,VALID,12,VALID,0.445313,
2009-03-20, 01:24:04,VALID,999.633,VALID,0,VALID,95.622,VALID,0,VALID,22.4136,VALID,12,VALID,0.382031,
2009-03-20, 01:25:04,VALID,999.591,VALID,0,VALID,95.6068,VALID,0,VALID,22.3941,VALID,12,VALID,0.458984,
2009-03-20, 01:26:04,VALID,999.581,VALID,0,VALID,95.5839,VALID,0,VALID,22.3958,VALID,16,VALID,0.614844,
2009-03-20, 01:27:04,VALID,999.565,VALID,0,VALID,95.6144,VALID,0,VALID,22.3958,VALID,26,VALID,0.921094,
2009-03-20, 01:28:04,VALID,999.557,VALID,0,VALID,95.6373,VALID,0,VALID,22.3958,VALID,42,VALID,1.06719,
2009-03-20, 01:29:04,VALID,999.565,VALID,0,VALID,95.561,VALID,0,VALID,22.3958,VALID,53,VALID,1.15781,
2009-03-20, 01:30:04,VALID,999.571,VALID,0,VALID,95.5076,VALID,0,VALID,22.3356,VALID,56,VALID,1.06172,
2009-03-20, 01:31:04,VALID,999.577,VALID,0,VALID,95.5076,VALID,0,VALID,22.3178,VALID,60,VALID,0.910937,
2009-03-20, 01:32:04,VALID,999.57,VALID,0,VALID,95.5457,VALID,0,VALID,22.2788,VALID,76,VALID,0.758594,
2009-03-20, 01:33:04,VALID,999.602,VALID,0,VALID,95.5534,VALID,0,VALID,22.2983,VALID,78,VALID,0.583203,
2009-03-20, 01:34:04,VALID,999.626,VALID,0,VALID,95.5839,VALID,0,VALID,22.2983,VALID,80,VALID,0.527344,
2009-03-20, 01:35:04,VALID,999.62,VALID,0,VALID,95.6068,VALID,0,VALID,22.2983,VALID,80,VALID,0.470313,
2009-03-20, 01:36:04,VALID,999.655,VALID,0,VALID,95.561,VALID,0,VALID,22.2788,VALID,80,VALID,0.228516,
2009-03-20, 01:37:04,VALID,999.639,VALID,0,VALID,95.5762,VALID,0,VALID,22.2592,VALID,80,VALID,0.00664063,
2009-03-20, 01:38:04,VALID,999.651,VALID,0,VALID,95.5762,VALID,0,VALID,22.2397,VALID,80,VALID,0.124219,
2009-03-20, 01:39:04,VALID,999.655,VALID,0,VALID,95.5762,VALID,0,VALID,22.2397,VALID,80,VALID,0,
2009-03-20, 01:40:04,VALID,999.604,VALID,0,VALID,95.6068,VALID,0,VALID,22.2186,VALID,80,VALID,0,
2009-03-20, 01:41:04,VALID,999.606,VALID,0,VALID,95.5991,VALID,0,VALID,22.2397,VALID,80,VALID,0,
2009-03-20, 01:42:04,VALID,999.609,VALID,0,VALID,95.6068,VALID,0,VALID,22.2397,VALID,80,VALID,0,
2009-03-20, 01:43:04,VALID,999.57,VALID,0,VALID,95.6068,VALID,0,VALID,22.2397,VALID,80,VALID,0,
2009-03-20, 01:44:04,VALID,999.58,VALID,0,VALID,95.6678,VALID,0,VALID,22.2592,VALID,80,VALID,0.263281,
2009-03-20, 01:45:04,VALID,999.545,VALID,0,VALID,95.6602,VALID,0,VALID,22.2788,VALID,80,VALID,0.152734,
2009-03-20, 01:46:04,VALID,999.535,VALID,0,VALID,95.6831,VALID,0,VALID,22.2788,VALID,80,VALID,0.140234,
2009-03-20, 01:47:04,VALID,999.545,VALID,0,VALID,95.6678,VALID,0,VALID,22.2576,VALID,80,VALID,0.01875,
2009-03-20, 01:48:04,VALID,999.552,VALID,0,VALID,95.6525,VALID,0,VALID,22.2592,VALID,80,VALID,0,
2009-03-20, 01:49:04,VALID,999.544,VALID,0,VALID,95.6525,VALID,0,VALID,22.2609,VALID,80,VALID,0,
2009-03-20, 01:50:04,VALID,999.525,VALID,0,VALID,95.6449,VALID,0,VALID,22.2202,VALID,80,VALID,0,
2009-03-20, 01:51:04,VALID,999.518,VALID,0,VALID,95.6373,VALID,0,VALID,22.2007,VALID,80,VALID,0,
2009-03-20, 01:52:04,VALID,999.49,VALID,0,VALID,95.6373,VALID,0,VALID,22.2007,VALID,80,VALID,0,
2009-03-20, 01:53:04,VALID,999.508,VALID,0,VALID,95.6449,VALID,0,VALID,22.1812,VALID,80,VALID,0,
2009-03-20, 01:54:04,VALID,999.504,VALID,0,VALID,95.6831,VALID,0,VALID,22.2202,VALID,125,VALID,0.544141,
2009-03-20, 01:55:04,VALID,999.448,VALID,0,VALID,95.6983,VALID,0,VALID,22.2202,VALID,125,VALID,0.692187,
2009-03-20, 01:56:04,VALID,999.448,VALID,0,VALID,95.7136,VALID,0,VALID,22.2592,VALID,125,VALID,0.515625,
2009-03-20, 01:57:04,VALID,999.43,VALID,0,VALID,95.7288,VALID,0,VALID,22.2771,VALID,125,VALID,0.475391,
2009-03-20, 01:58:04,VALID,999.447,VALID,0,VALID,95.7288,VALID,0,VALID,22.3178,VALID,127,VALID,0.5375,
2009-03-20, 01:59:04,VALID,999.453,VALID,0,VALID,95.706,VALID,0,VALID,22.3373,VALID,127,VALID,0.53125,
2009-03-20, 02:00:04,VALID,999.416,VALID,0,VALID,95.6831,VALID,0,VALID,22.3568,VALID,130,VALID,0.233984,
2009-03-20, 02:01:04,VALID,999.445,VALID,0,VALID,95.6831,VALID,0,VALID,22.3356,VALID,130,VALID,0.2375,
2009-03-20, 02:02:04,VALID,999.404,VALID,0,VALID,95.6602,VALID,0,VALID,22.3568,VALID,130,VALID,0.362891,
2009-03-20, 02:03:04,VALID,999.395,VALID,0,VALID,95.6602,VALID,0,VALID,22.3568,VALID,130,VALID,0.326562,
2009-03-20, 02:04:04,VALID,999.342,VALID,0,VALID,95.6449,VALID,0,VALID,22.3356,VALID,130,VALID,0.366797,
2009-03-20, 02:05:04,VALID,999.365,VALID,0,VALID,95.6525,VALID,0,VALID,22.3763,VALID,130,VALID,0.185937,
2009-03-20, 02:06:04,VALID,999.377,VALID,0,VALID,95.6297,VALID,0,VALID,22.3763,VALID,130,VALID,0.242969,
2009-03-20, 02:07:04,VALID,999.386,VALID,0,VALID,95.6144,VALID,0,VALID,22.3763,VALID,140,VALID,0.431641,
2009-03-20, 02:08:04,VALID,999.388,VALID,0,VALID,95.6068,VALID,0,VALID,22.3568,VALID,162,VALID,0.600391,
2009-03-20, 02:09:04,VALID,999.374,VALID,0,VALID,95.5915,VALID,0,VALID,22.3568,VALID,162,VALID,0.695703,
2009-03-20, 02:10:04,VALID,999.37,VALID,0,VALID,95.5762,VALID,0,VALID,22.3568,VALID,162,VALID,0.473047,
2009-03-20, 02:11:04,VALID,999.366,VALID,0,VALID,95.5839,VALID,0,VALID,22.3568,VALID,162,VALID,0.640625,
2009-03-20, 02:12:04,VALID,999.36,VALID,0,VALID,95.5686,VALID,0,VALID,22.3568,VALID,158,VALID,0.634766,
2009-03-20, 02:13:04,VALID,999.36,VALID,0,VALID,95.5457,VALID,0,VALID,22.3568,VALID,158,VALID,0.574609,
2009-03-20, 02:14:04,VALID,999.337,VALID,0,VALID,95.5381,VALID,0,VALID,22.3551,VALID,162,VALID,0.778516,
2009-03-20, 02:15:04,VALID,999.335,VALID,0,VALID,95.4542,VALID,0,VALID,22.3958,VALID,165,VALID,0.853125,
2009-03-20, 02:16:04,VALID,999.341,VALID,0,VALID,95.4084,VALID,0,VALID,22.3763,VALID,171,VALID,1.12656,
2009-03-20, 02:17:04,VALID,999.345,VALID,0,VALID,95.3855,VALID,0,VALID,22.3746,VALID,165,VALID,1.00312,
2009-03-20, 02:18:04,VALID,999.335,VALID,0,VALID,95.3245,VALID,0,VALID,22.4348,VALID,182,VALID,0.970312,
2009-03-20, 02:19:04,VALID,999.348,VALID,0,VALID,95.2711,VALID,0,VALID,22.3941,VALID,182,VALID,1.23555,
2009-03-20, 02:20:04,VALID,999.354,VALID,0,VALID,95.1719,VALID,0,VALID,22.3958,VALID,178,VALID,1.14063,
2009-03-20, 02:21:04,VALID,999.338,VALID,0,VALID,95.0651,VALID,0,VALID,22.3958,VALID,183,VALID,0.990234,
2009-03-20, 02:22:04,VALID,999.329,VALID,0,VALID,94.9964,VALID,0,VALID,22.3763,VALID,184,VALID,0.73125,
2009-03-20, 02:23:04,VALID,999.309,VALID,0,VALID,94.9735,VALID,0,VALID,22.3958,VALID,184,VALID,0.325781,
2009-03-20, 02:24:04,VALID,999.303,VALID,0,VALID,94.943,VALID,0,VALID,22.3763,VALID,184,VALID,0.490234,
2009-03-20, 02:25:04,VALID,999.273,VALID,0,VALID,94.9506,VALID,0,VALID,22.3568,VALID,184,VALID,0.615234,
2009-03-20, 02:26:04,VALID,999.29,VALID,0,VALID,94.9506,VALID,0,VALID,22.3373,VALID,187,VALID,0.650781,
2009-03-20, 02:27:04,VALID,999.286,VALID,0,VALID,94.9354,VALID,0,VALID,22.3161,VALID,193,VALID,0.551172,
2009-03-20, 02:28:04,VALID,999.278,VALID,0,VALID,94.9125,VALID,0,VALID,22.3373,VALID,193,VALID,0.513672,
2009-03-20, 02:29:04,VALID,999.292,VALID,0,VALID,94.8743,VALID,0,VALID,22.3373,VALID,193,VALID,0.337891,
2009-03-20, 02:30:04,VALID,999.279,VALID,0,VALID,94.8667,VALID,0,VALID,22.3178,VALID,193,VALID,0.288672,
2009-03-20, 02:31:04,VALID,999.316,VALID,0,VALID,94.8133,VALID,0,VALID,22.3178,VALID,193,VALID,0.180859,
2009-03-20, 02:32:04,VALID,999.297,VALID,0,VALID,94.9048,VALID,0,VALID,22.3373,VALID,193,VALID,0.210938,
2009-03-20, 02:33:04,VALID,999.287,VALID,0,VALID,94.8438,VALID,0,VALID,22.3178,VALID,193,VALID,0.302734,
2009-03-20, 02:34:04,VALID,999.316,VALID,0,VALID,94.6226,VALID,0,VALID,22.2983,VALID,107,VALID,0.640625,
2009-03-20, 02:35:04,VALID,999.294,VALID,0,VALID,94.4165,VALID,0,VALID,22.2202,VALID,99,VALID,0.694531,
2009-03-20, 02:36:04,VALID,999.303,VALID,0,VALID,94.5386,VALID,0,VALID,22.1812,VALID,99,VALID,0.470703,
2009-03-20, 02:37:04,VALID,999.318,VALID,0,VALID,94.6378,VALID,0,VALID,22.1422,VALID,99,VALID,0.330859,
2009-03-20, 02:38:04,VALID,999.319,VALID,0,VALID,94.7675,VALID,0.112286,VALID,22.121,VALID,99,VALID,0.276563,
2009-03-20, 02:39:04,VALID,999.33,VALID,0,VALID,94.8591,VALID,0.112286,VALID,22.1227,VALID,99,VALID,0.273828,
2009-03-20, 02:40:04,VALID,999.338,VALID,0,VALID,94.9506,VALID,0,VALID,22.1227,VALID,99,VALID,0.305078,
2009-03-20, 02:41:04,VALID,999.296,VALID,0,VALID,95.0422,VALID,0,VALID,22.1422,VALID,99,VALID,0.374219,
2009-03-20, 02:42:04,VALID,999.286,VALID,0,VALID,95.1185,VALID,0,VALID,22.1812,VALID,99,VALID,0.553906,
2009-03-20, 02:43:04,VALID,999.305,VALID,0,VALID,95.0956,VALID,0,VALID,22.2007,VALID,90,VALID,0.694531,
2009-03-20, 02:44:04,VALID,999.286,VALID,0,VALID,95.0422,VALID,0,VALID,22.2007,VALID,67,VALID,0.692969,
2009-03-20, 02:45:04,VALID,999.298,VALID,0,VALID,94.943,VALID,0.112286,VALID,22.2186,VALID,44,VALID,0.724609,
2009-03-20, 02:46:04,VALID,999.306,VALID,0,VALID,94.798,VALID,0.112286,VALID,22.2007,VALID,41,VALID,0.703516,
2009-03-20, 02:47:04,VALID,999.321,VALID,0,VALID,94.7599,VALID,0,VALID,22.1405,VALID,41,VALID,0.387891,
2009-03-20, 02:48:04,VALID,999.298,VALID,0,VALID,94.7599,VALID,0,VALID,22.1015,VALID,41,VALID,0.259766,
2009-03-20, 02:49:04,VALID,999.352,VALID,0,VALID,94.7904,VALID,0,VALID,22.0837,VALID,41,VALID,0.141797,
2009-03-20, 02:50:04,VALID,999.344,VALID,0,VALID,94.8285,VALID,0,VALID,22.0642,VALID,41,VALID,0.161719,
2009-03-20, 02:51:04,VALID,999.345,VALID,0,VALID,94.8972,VALID,0,VALID,22.0447,VALID,41,VALID,0.192188,
2009-03-20, 02:52:04,VALID,999.322,VALID,0,VALID,94.9583,VALID,0,VALID,22.0057,VALID,41,VALID,0.232812,
2009-03-20, 02:53:04,VALID,999.345,VALID,0,VALID,95.0727,VALID,0,VALID,21.9845,VALID,41,VALID,0.263281,
2009-03-20, 02:54:04,VALID,999.341,VALID,0,VALID,95.1185,VALID,0,VALID,22.0057,VALID,41,VALID,0.523438,
2009-03-20, 02:55:04,VALID,999.34,VALID,0,VALID,95.1337,VALID,0,VALID,22.0057,VALID,41,VALID,0.587891,
2009-03-20, 02:56:04,VALID,999.339,VALID,0,VALID,95.1185,VALID,0,VALID,21.9845,VALID,41,VALID,0.740625,
2009-03-20, 02:57:04,VALID,999.336,VALID,0,VALID,95.0803,VALID,0,VALID,21.9862,VALID,41,VALID,0.801172,
2009-03-20, 02:58:04,VALID,999.323,VALID,0,VALID,95.0956,VALID,0,VALID,21.926,VALID,41,VALID,0.895703,
2009-03-20, 02:59:04,VALID,999.311,VALID,0,VALID,95.1414,VALID,0,VALID,21.9472,VALID,42,VALID,0.990625,
2009-03-20, 03:00:04,VALID,999.311,VALID,0,VALID,95.2634,VALID,0,VALID,21.9472,VALID,42,VALID,1.01211,
2009-03-20, 03:01:04,VALID,999.304,VALID,0,VALID,95.3016,VALID,0,VALID,21.9667,VALID,42,VALID,0.862891,
2009-03-20, 03:02:04,VALID,999.299,VALID,0,VALID,95.3092,VALID,0.112286,VALID,21.9455,VALID,42,VALID,0.679688,
2009-03-20, 03:03:04,VALID,999.3,VALID,0,VALID,95.2634,VALID,0,VALID,21.9667,VALID,42,VALID,0.553125,
2009-03-20, 03:04:04,VALID,999.331,VALID,0,VALID,95.2558,VALID,0,VALID,21.9277,VALID,42,VALID,0.321094,
2009-03-20, 03:05:04,VALID,999.312,VALID,0,VALID,95.294,VALID,0.112286,VALID,21.9472,VALID,42,VALID,0.553906,
2009-03-20, 03:06:04,VALID,999.333,VALID,0,VALID,95.3016,VALID,0,VALID,21.926,VALID,41,VALID,0.621484,
2009-03-20, 03:07:04,VALID,999.335,VALID,0,VALID,95.4008,VALID,0,VALID,21.9472,VALID,33,VALID,0.782031,
2009-03-20, 03:08:04,VALID,999.336,VALID,0,VALID,95.4389,VALID,0,VALID,21.9862,VALID,27,VALID,0.855469,
2009-03-20, 03:09:04,VALID,999.363,VALID,0,VALID,95.4008,VALID,0,VALID,21.9455,VALID,23,VALID,0.777734,
2009-03-20, 03:10:04,VALID,999.354,VALID,0,VALID,95.3321,VALID,0,VALID,21.9472,VALID,16,VALID,0.908984,
2009-03-20, 03:11:04,VALID,999.33,VALID,0,VALID,95.2787,VALID,0,VALID,21.9082,VALID,16,VALID,1.01172,
2009-03-20, 03:12:05,VALID,999.337,VALID,0,VALID,95.2482,VALID,0.112286,VALID,21.8887,VALID,16,VALID,0.834375,
2009-03-20, 03:13:05,VALID,999.348,VALID,0,VALID,95.2711,VALID,0,VALID,21.8285,VALID,27,VALID,0.855078,
2009-03-20, 03:14:05,VALID,999.324,VALID,0,VALID,95.3092,VALID,0.112286,VALID,21.809,VALID,39,VALID,0.904297,
2009-03-20, 03:15:05,VALID,999.347,VALID,0,VALID,95.3931,VALID,0,VALID,21.8496,VALID,46,VALID,0.958203,
2009-03-20, 03:16:05,VALID,999.324,VALID,0,VALID,95.4389,VALID,0,VALID,21.8692,VALID,48,VALID,0.810547,
2009-03-20, 03:17:05,VALID,999.309,VALID,0,VALID,95.4237,VALID,0,VALID,21.8675,VALID,48,VALID,0.704687,
2009-03-20, 03:18:05,VALID,999.324,VALID,0,VALID,95.4542,VALID,0,VALID,21.8675,VALID,48,VALID,0.674219,
2009-03-20, 03:19:05,VALID,999.304,VALID,0,VALID,95.5076,VALID,0,VALID,21.9082,VALID,61,VALID,0.608594,
2009-03-20, 03:20:05,VALID,999.311,VALID,0,VALID,95.4618,VALID,0,VALID,21.9065,VALID,61,VALID,0.546875,
2009-03-20, 03:21:05,VALID,999.298,VALID,0,VALID,95.4084,VALID,0,VALID,21.9065,VALID,61,VALID,0.591406,
2009-03-20, 03:22:05,VALID,999.299,VALID,0,VALID,95.3855,VALID,0,VALID,21.9065,VALID,61,VALID,0.545703,
2009-03-20, 03:23:05,VALID,999.306,VALID,0,VALID,95.355,VALID,0,VALID,21.9082,VALID,60,VALID,0.591016,
2009-03-20, 03:24:05,VALID,999.299,VALID,0,VALID,95.4008,VALID,0,VALID,21.887,VALID,60,VALID,0.598047,
2009-03-20, 03:25:05,VALID,999.29,VALID,0,VALID,95.4237,VALID,0,VALID,21.926,VALID,60,VALID,0.474609,
2009-03-20, 03:26:05,VALID,999.307,VALID,0,VALID,95.3321,VALID,0,VALID,21.9277,VALID,60,VALID,0.313281,
2009-03-20, 03:27:05,VALID,999.314,VALID,0,VALID,95.2405,VALID,0,VALID,21.9082,VALID,60,VALID,0.209766,
2009-03-20, 03:28:05,VALID,999.344,VALID,0,VALID,95.2482,VALID,0,VALID,21.8692,VALID,60,VALID,0,
2009-03-20, 03:29:05,VALID,999.359,VALID,0,VALID,95.2558,VALID,0,VALID,21.8496,VALID,60,VALID,0,
2009-03-20, 03:30:05,VALID,999.373,VALID,0,VALID,95.3092,VALID,0,VALID,21.8285,VALID,60,VALID,0.0195313,
2009-03-20, 03:31:05,VALID,999.375,VALID,0,VALID,95.4008,VALID,0,VALID,21.848,VALID,60,VALID,0.245703,
2009-03-20, 03:32:05,VALID,999.364,VALID,0,VALID,95.4618,VALID,0,VALID,21.8692,VALID,60,VALID,0.294922,
2009-03-20, 03:33:05,VALID,999.376,VALID,0,VALID,95.4923,VALID,0,VALID,21.8675,VALID,60,VALID,0.292188,
2009-03-20, 03:34:05,VALID,999.365,VALID,0,VALID,95.5534,VALID,0,VALID,21.9277,VALID,107,VALID,0.669531,
2009-03-20, 03:35:05,VALID,999.354,VALID,0,VALID,95.5762,VALID,0,VALID,21.9667,VALID,95,VALID,0.707031,
2009-03-20, 03:36:05,VALID,999.35,VALID,0,VALID,95.561,VALID,0,VALID,21.9845,VALID,95,VALID,0.450781,
2009-03-20, 03:37:05,VALID,999.338,VALID,0,VALID,95.5305,VALID,0,VALID,22.0057,VALID,95,VALID,0.603516,
2009-03-20, 03:38:05,VALID,999.337,VALID,0,VALID,95.5,VALID,0,VALID,22.0252,VALID,95,VALID,0.508203,
2009-03-20, 03:39:05,VALID,999.338,VALID,0,VALID,95.4847,VALID,0,VALID,22.0252,VALID,95,VALID,0.221094,
2009-03-20, 03:40:05,VALID,999.354,VALID,0,VALID,95.4618,VALID,0.112286,VALID,22.004,VALID,95,VALID,0.235938,
2009-03-20, 03:41:05,VALID,999.362,VALID,0,VALID,95.4389,VALID,0,VALID,22.0252,VALID,96,VALID,0.310156,
2009-03-20, 03:42:05,VALID,999.379,VALID,0,VALID,95.4771,VALID,0,VALID,22.0252,VALID,97,VALID,0.712109,
2009-03-20, 03:43:05,VALID,999.394,VALID,0,VALID,95.4923,VALID,0,VALID,22.0252,VALID,98,VALID,0.600391,
2009-03-20, 03:44:05,VALID,999.428,VALID,0,VALID,95.4694,VALID,0,VALID,22.0447,VALID,98,VALID,0.644141,
2009-03-20, 03:45:05,VALID,999.409,VALID,0,VALID,95.4313,VALID,0,VALID,22.0447,VALID,93,VALID,0.669531,
2009-03-20, 03:46:05,VALID,999.405,VALID,0,VALID,95.4465,VALID,0,VALID,22.0642,VALID,84,VALID,0.862891,